Tracking 28790 objects as of 19-Apr-2024
HD Live streaming from Space Station
objects crossing your sky now

SL-16 DEB

Track SL-16 DEB now!
10-day predictions


NORAD ID: 22537
Int'l Code: 1992-093GX
Perigee: 789.4 km
Apogee: 947.1 km
Inclination: 71.2 °
Period: 102.2 minutes
Semi major axis: 7239 km
RCS: 0.0078 m2 (small)
Launch date: December 25, 1992
Source: Commonwealth of Independent States (former USSR) (CIS)
Launch site: TYURATAM MISSILE AND SPACE COMPLEX (TTMTR)

Note: This is SATELLITE DEBRIS
Your satellite tracking list
Your tracking list is empty




NASA's NSSDC Master Catalog

Two Line Element Set (TLE):
1 22537U 92093GX  24109.48995983  .00004449  00000-0  24321-2 0  9998
2 22537  71.1724 147.2239 0108922 193.1428 166.6852 14.09492995592902
Source of the keplerian elements: AFSPC